[ hide orbit diagram ]
For accurate long-term ephemerides, please instead use our Horizons system.This orbit viewer was implemented using two-body methods, and hence should not be used for determining accurate long-term trajectories (over several years or decades) or planetary encounter circumstances.
Orbital Elements at Epoch 2459200.5 (2020-Dec-17.0) TDB
Reference: JPL 18 (heliocentric ecliptic J2000)
Element | Value | Uncertainty (1-sigma) | Units |
e | .2185149145702037 | 6.7758e-08 | |
a | 3.169510027566302 | 4.0831e-08 | au |
q | 2.476924814663248 | 2.3418e-07 | au |
i | 14.70009774974717 | 6.1665e-06 | deg |
node | 341.1171069084238 | 2.2592e-05 | deg |
peri | 173.6475221621924 | 2.8449e-05 | deg |
M | 324.6894757098462 | 1.3724e-05 | deg |
tp | 2459402.656768762230 (2021-Jul-07.15676876) | 7.8912e-05 | TDB |
period | 2061.040956412426 5.64 | 3.9827e-05 1.09e-07 | d yr |
n | .1746690180415619 | 3.3752e-09 | deg/d |
Q | 3.862095240469357 | 4.9753e-08 | au |
|
| | Orbit Determination Parameters
Additional Information
|
[ show covariance matrix ]
Physical Parameter Table
Parameter |
Symbol |
Value |
Units |
Sigma |
Reference |
Notes |
absolute magnitude |
H |
15.7 |
|
n/a |
MPO455711 |
|
diameter |
diameter |
3.857 |
km |
0.338 |
urn:nasa:pds:neowise_diameters_albedos::2.0[mainbelt] (http://adsabs.harvard.edu/abs/2011ApJ...741...68M) |
|
geometric albedo |
albedo |
0.062 |
|
0.010 |
urn:nasa:pds:neowise_diameters_albedos::2.0[mainbelt] (http://adsabs.harvard.edu/abs/2011ApJ...741...68M) |
|
|
376029 Blahová | Discovered 2010 Feb. 12 by S. Kurti at Mayhill. |
Blahová is a small Slovak village founded in 1935. The first observatory in the Zitný ostrov region of south-west Slovakia was built there by a local group of amateur astronomers. |
NOTE: some special characters may not display properly (any characters within {} are an attempt to place the proper accent above a character) |
Reference: MPC batch dated 2016-02-22 | Last Updated: 2016-03-24 |
|
[ show close-approach data ]
|